Location: Jaite
(41.2884°N, 81.5737°W)
Time: 04:47:39
(UTC+00:00)

USA 267 - Pass Details

Date: 15 November 2025
Orbit: 1100 x 1108 km, 123.0° (Epoch: 21 November)

Event Time Altitude Azimuth Distance (km) Brightness Sun altitude
Rises 08:45:33 0° 50° (NE) 3,921 6.8 -39.2°
Reaches altitude 10° 08:48:07 10° 55° (NE) 2,960 6.1 -38.7°
Enters shadow 08:53:31 50° 101° (E) 1,367 3.9 -37.7°
